Terug naar catalogus

COSMOS 2251 DEB

ActiefLEO
NORAD 35020·DEBRIS·🇷🇺 Russia

Gelanceerd Jun 16, 1993 vanaf Plesetsk Cosmodrome

Loading…

Volgende Passages (komende 24 uur)

TLE

VersSource: Space-Track

Epoch: Sep 13, 2026, 08:43 UTC

1 35020U 93036AGH 26256.36381658  .00000484  00000-0  94917-4 0  9992
2 35020  74.0471  32.6542 0088514  76.3266 284.7738 14.63159606922545

Volg COSMOS 2251 DEB in realtime met AllMySat

Download on the App Store